sat.trackr.live / text

‹ back to catalog

STARLINK-3903

NORAD 52462 · 2022-049M

PAYLOAD ACTIVE UNKNOWN

§ Identity

Operator
Country
US
Launch date
2022-05-06
Launch site
AFETR
Launch vehicle
Mass (kg)
RCS (m²)

Purposes: comms

External: N2YO · Heavens-Above · Gunter

§ Orbital elements

Epoch: 2026-09-19T23:37:51.695040Z

Period
93.79 min
Inclination
53.1596°
Eccentricity
0.0001313
Mean motion
15.35399755 rev/d
Perigee alt
458.8 km
Apogee alt
460.6 km
Semi-major
6,837.9 km
B*
4.0199e-5
RAAN
256.0766°
Arg perigee
83.6814°
Mean anomaly
276.4339°
Rev number
24,172

§ Raw data

STARLINK-39031 52462U 22049M   26262.98462610  .00001022  00000+0  40199-4 0  99912 52462  53.1596 256.0766 0001313  83.6814 276.4339 15.35399755241722

JSON: /api/v1/satellites/52462 · /tle

For live sub-satellite position, see the globe view (requires WebGL).

§ Visibility from observer

Set your observer location to see the next 7 days of passes ≥ 10°. The values pass through the URL so the page stays shareable.

No JS? Fill the form by hand. The geolocation button needs JavaScript.